Regional Weather Roundup
Issued by NWS Huntsville, AL

Home | Current Version | Previous Version | Text Only | Print | Product List | Glossary On
Versions: 1 2 3 4 5 6 7 8 9 10 11 12 13 14 15 16 17 18 19 20 21 22 23 24 25 26 27 28 29 30 31 32 33 34 35 36 37 38 39 40 41 42 43 44 45 46 47 48 49 50
000
ASUS44 KHUN 250810
RWRHUN

WEATHER ROUNDUP FOR THE TENNESSEE VALLEY
NATIONAL WEATHER SERVICE HUNTSVILLE AL
300 AM CDT WED MAY 25 2016

ALZ001>004-250900-
NORTHWEST ALABAMA

CITY           SKY/WX    TMP DP  RH WIND       PRES   REMARKS
COURTLAND HCN    N/A     64 N/A N/A CALM        N/A
RUSSELLVILLE     N/A     66 N/A N/A MISG        N/A
SHOALS AIRPORT PTCLDY    71  58  63 S7        30.08S
SHOALS TVA RES   N/A     70 N/A N/A MISG        N/A
$$

ALZ005>007-016-250900-
NORTH CENTRAL ALABAMA

CITY           SKY/WX    TMP DP  RH WIND       PRES   REMARKS
CULLMAN AG STN   N/A     57 N/A N/A CALM        N/A
DECATUR AP     CLEAR     65  58  78 SE5       30.09F
HUNTSVILLE AP  CLEAR     65  56  72 SE7       30.09F
HUN NWS/UAH      N/A     68  55  62 E2          N/A
MERIDIANVILLE  CLEAR     61  52  72 CALM      30.10F
VINEMONT AP    FAIR      65  56  71 CALM      30.13F
$$

ALZ008>010-250900-
NORTHEAST ALABAMA

CITY           SKY/WX    TMP DP  RH WIND       PRES   REMARKS
ALBERTVILLE    CLEAR     64  59  82 S3        30.13F
FORT PAYNE     CLEAR     55  52  88 CALM      30.14F
SCOTTSBORO AP  PTCLDY    59  59 100 CALM      30.13F
$$

TNZ076-096-097-250900-
SOUTHEASTERN MIDDLE TENNESSEE

CITY           SKY/WX    TMP DP  RH WIND       PRES   REMARKS
TULLAHOMA      CLEAR     59  57  94 CALM      30.12S
WINCHESTER     CLEAR     63  54  72 E3        30.12F
$$

...SURROUNDING SITES...

CITY           SKY/WX    TMP DP  RH WIND       PRES   REMARKS
ATLANTA        PTCLDY    69  52  54 CALM      30.17S
ANNISTON       CLEAR     62  58  86 CALM      30.15F
BIRMINGHAM     CLEAR     67  57  70 CALM      30.14F
CHATTANOOGA    CLEAR     63  57  81 CALM      30.14F
DALTON         CLEAR     59  59 100 CALM      30.16S
GADSDEN        CLEAR     59  58  96 CALM      30.14F
GOLDEN TRNGL   CLOUDY    70  59  68 SW5       30.07R
HALEYVILLE     FAIR      67  58  72 SW3       30.12S
JACKSON TN     PTCLDY    64  63  96 CALM      30.04F FOG
MEMPHIS        MOCLDY    68  64  87 SE6       30.02F
NASHVILLE      CLOUDY    67  56  67 S5        30.07S
OXFORD MS      FAIR      66  59  77 S5        30.06R
ROME           CLEAR     59  56  89 CALM      30.15S
SAVANNAH       MOCLDY    68  63  83 S7        30.04R
TUPELO         PTCLDY    66  62  87 S5        30.05S
TUSCALOOSA     CLEAR     64  62  93 CALM      30.10F
$$

...GULF COAST WEATHER...

CITY           SKY/WX    TMP DP  RH WIND       PRES   REMARKS
GULFPORT       PTCLDY    71  67  87 CALM      30.09F
PASCAGOULA     CLEAR     61  60  97 CALM      30.10F FOG
MOBILE         CLEAR     64  64 100 CALM      30.12S
GULF SHORES    SUNNY     63  63 100 CALM      30.10F FOG
DESTIN         CLEAR     70  67  90 CALM      30.10F
PANAMA CITY    CLEAR     65  63  94 NE3       30.12S
APPALACHICOLA  PTCLDY    67  65  93 NE6       30.12F
$$




USA.gov is the U.S. government's official web portal to all federal, state and local government web resources and services.